Satellite: ANTELSAT
Catalog number: 40034
Epoch time: 14212.74072605
Element set: 112
Inclination: 097.9765 deg
RA of node: 106.5325 deg
Eccentricity: 0.0063063
Arg of perigee: 064.9938 deg
Mean anomaly: 295.7845 deg
Mean motion: 14.71244879 rev/day
Decay rate: 7.06e-06 rev/day^2
Epoch rev: 615
Checksum: 299
/EX
SB KEPS @ AMSAT $ORB14212.W
Orbital Elements 14212.WEATHER
HR AMSAT ORBITAL ELEMENTS FOR WEATHER SATELLITES
FROM WA5QGD FORT WORTH,TX July 31, 2014
BID: ORB14212.W
TO ALL RADIO AMATEURS BT
Satellite: MET-2/21
Catalog number: 22782
Epoch time: 14212.81937000
Element set: 123
Inclination: 082.5514 deg
RA of node: 137.8978 deg
Eccentricity: 0.0023342
Arg of perigee: 137.6804 deg
Mean anomaly: 241.8557 deg
Mean motion: 13.83742912 rev/day
Decay rate: 8.3e-07 rev/day^2
Epoch rev: 5629
Checksum: 297
Satellite: OKEAN-4
Catalog number: 23317
Epoch time: 14212.14115865
Element set: 602
Inclination: 082.5378 deg
RA of node: 026.7156 deg
Eccentricity: 0.0019224
Arg of perigee: 315.7723 deg
Mean anomaly: 155.7093 deg
Mean motion: 14.85599988 rev/day
Decay rate: 6.61e-06 rev/day^2
Epoch rev: 6963
Checksum: 318
Satellite: NOAA-14
Catalog number: 23455
Epoch time: 14212.44955811
Element set: 842
Inclination: 098.7770 deg
RA of node: 295.0984 deg
Eccentricity: 0.0008399
Arg of perigee: 272.2778 deg
Mean anomaly: 195.3841 deg
Mean motion: 14.13980159 rev/day
Decay rate: 4.4e-07 rev/day^2
Epoch rev: 1020
Checksum: 318
Satellite: NOAA-15
Catalog number: 25338
Epoch time: 14212.49554784
Element set: 278
Inclination: 098.7550 deg
RA of node: 206.2728 deg
Eccentricity: 0.0010876
Arg of perigee: 026.3125 deg
Mean anomaly: 129.5970 deg
Mean motion: 14.25449150 rev/day
Decay rate: 1.43e-06 rev/day^2
Epoch rev: 84315
Checksum: 309
Satellite: RESURS
Catalog number: 25394
Epoch time: 14212.82335977
Element set: 716
Inclination: 098.4165 deg
RA of node: 175.3242 deg
Eccentricity: 0.0002501
Arg of perigee: 117.0740 deg
Mean anomaly: 272.0274 deg
Mean motion: 14.24395628 rev/day
Decay rate: -2.6e-07 rev/day^2
Epoch rev: 83467
Checksum: 291
Satellite: FENGYUN1
Catalog number: 25730
Epoch time: 14212.83074807
Element set: 205
Inclination: 098.9146 deg
RA of node: 173.6541 deg
Eccentricity: 0.0024760
Arg of perigee: 350.5401 deg
Mean anomaly: 039.2837 deg
Mean motion: 14.11978139 rev/day
Decay rate: 3.93e-06 rev/day^2
Epoch rev: 78382
Checksum: 301
Satellite: OKEAN-0
Catalog number: 25860
Epoch time: 14212.79869193
Element set: 317
Inclination: 098.0465 deg
RA of node: 176.4098 deg
Eccentricity: 0.0000873
Arg of perigee: 109.8678 deg
Mean anomaly: 295.5878 deg
Mean motion: 14.75325140 rev/day
Decay rate: 5.38e-06 rev/day^2
Epoch rev: 80873
Checksum: 346
Satellite: NOAA-16
Catalog number: 26536
Epoch time: 14212.40790583
Element set: 775
Inclination: 098.9874 deg
RA of node: 272.9568 deg
Eccentricity: 0.0011231
Arg of perigee: 063.7389 deg
Mean anomaly: 296.4935 deg
Mean motion: 14.13031222 rev/day
Decay rate: -4.3e-07 rev/day^2
Epoch rev: 71436
Checksum: 319
Satellite: NOAA-17
Catalog number: 27453
Epoch time: 14212.43658079
Element set: 670
Inclination: 098.3161 deg
RA of node: 209.8229 deg
Eccentricity: 0.0012417
Arg of perigee: 049.7532 deg
Mean anomaly: 310.4732 deg
Mean motion: 14.24760111 rev/day
Decay rate: 8.1e-07 rev/day^2
Epoch rev: 62898
Checksum: 299
Satellite: NOAA-18
Catalog number: 28654
Epoch time: 14212.46818159
Element set: 177
Inclination: 099.1517 deg
RA of node: 192.8644 deg
Eccentricity: 0.0015164
Arg of perigee: 137.3989 deg
Mean anomaly: 331.2309 deg
Mean motion: 14.12044682 rev/day
Decay rate: 2.0e-07 rev/day^2
Epoch rev: 47381
Checksum: 313
Satellite: NOAA-19
Catalog number: 33591
Epoch time: 14212.44300264
Element set: 321
Inclination: 098.9464 deg
RA of node: 157.3533 deg
Eccentricity: 0.0013910
Arg of perigee: 359.7626 deg
Mean anomaly: 144.0222 deg
Mean motion: 14.11742659 rev/day
Decay rate: 4.7e-07 rev/day^2
Epoch rev: 28223
Checksum: 283
/EX
SB KEPS @ AMSAT $ORB14212.M
Orbital Elements 14212.MISC
HR AMSAT ORBITAL ELEMENTS FOR MANNED AND MISCELLANEOUS SATELLITES
FROM WA5QGD FORT WORTH,TX July 31, 2014
BID: ORB14212.M
TO ALL RADIO AMATEURS BT
Satellite: HUBBLE
Catalog number: 20580
Epoch time: 14212.08123550
Element set: 66
Inclination: 028.4703 deg
RA of node: 108.5523 deg
Eccentricity: 0.0003245
Arg of perigee: 035.6199 deg
Mean anomaly: 069.1495 deg
Mean motion: 15.05567770 rev/day
Decay rate: 1.455e-05 rev/day^2
Epoch rev: 13133
Checksum: 267
Satellite: ISS
Catalog number: 25544
Epoch time: 14212.89740609
Element set: 808
Inclination: 051.6470 deg
RA of node: 237.9674 deg
Eccentricity: 0.0006323
Arg of perigee: 315.9344 deg
Mean anomaly: 104.9033 deg
Mean motion: 15.50492143 rev/day
Decay rate: 3.954e-05 rev/day^2
Epoch rev: 89826
Checksum: 309
Satellite: CO-58
Catalog number: 28895
Epoch time: 14212.76729131
Element set: 832
Inclination: 097.8330 deg
RA of node: 052.3164 deg
Eccentricity: 0.0016540
Arg of perigee: 226.1896 deg
Mean anomaly: 133.7939 deg
Mean motion: 14.61947955 rev/day
Decay rate: 6.28e-06 rev/day^2
Epoch rev: 46676
Checksum: 346
Satellite: FALCON
Catalog number: 30776
Epoch time: 14211.95862039
Element set: 922
Inclination: 035.4280 deg
RA of node: 202.6538 deg
Eccentricity: 0.0002327
Arg of perigee: 289.7080 deg
Mean anomaly: 165.5349 deg
Mean motion: 15.16728952 rev/day
Decay rate: 4.466e-05 rev/day^2
Epoch rev: 40738
Checksum: 312
Satellite: MAST
Catalog number: 31126
Epoch time: 14211.80501310
Element set: 105
Inclination: 097.9178 deg
RA of node: 190.4341 deg
Eccentricity: 0.0091424
Arg of perigee: 217.4971 deg
Mean anomaly: 261.4966 deg
Mean motion: 14.55327396 rev/day
Decay rate: 3.23e-06 rev/day^2
Epoch rev: 38673
Checksum: 283
Satellite: CAPE1
Catalog number: 31130
Epoch time: 14212.17023786
Element set: 112
Inclination: 097.9388 deg
RA of node: 187.4888 deg
Eccentricity: 0.0097856
Arg of perigee: 234.7504 deg
Mean anomaly: 124.4508 deg
Mean motion: 14.54510571 rev/day
Decay rate: 3.98e-06 rev/day^2
Epoch rev: 38620
Checksum: 310
Satellite: COMPASS
Catalog number: 32787
Epoch time: 14212.61555711
Element set: 998
Inclination: 097.6985 deg
RA of node: 264.8721 deg
Eccentricity: 0.0014254
Arg of perigee: 041.0455 deg
Mean anomaly: 319.1832 deg
Mean motion: 14.88092857 rev/day
Decay rate: 2.007e-05 rev/day^2
Epoch rev: 33879
Checksum: 329
Satellite: AAUSAT2
Catalog number: 32788
Epoch time: 14212.12782794
Element set: 984
Inclination: 097.6995 deg
RA of node: 265.4396 deg
Eccentricity: 0.0013658
Arg of perigee: 040.9114 deg
Mean anomaly: 319.3125 deg
Mean motion: 14.88814662 rev/day
Decay rate: 1.954e-05 rev/day^2
Epoch rev: 33878
Checksum: 351
Satellite: DO-64
Catalog number: 32789
Epoch time: 14212.78150078
Element set: 25
Inclination: 097.7173 deg
RA of node: 273.0110 deg
Eccentricity: 0.0012000
Arg of perigee: 023.7824 deg
Mean anomaly: 115.0704 deg
Mean motion: 14.93767959 rev/day
Decay rate: 4.796e-05 rev/day^2
Epoch rev: 33915
Checksum: 303
Satellite: CO-66
Catalog number: 32791
Epoch time: 14211.67030200
Element set: 979
Inclination: 097.6980 deg
RA of node: 262.6280 deg
Eccentricity: 0.0015085
Arg of perigee: 047.2555 deg
Mean anomaly: 312.9928 deg
Mean motion: 14.86713488 rev/day
Decay rate: 1.286e-05 rev/day^2
Epoch rev: 33851
Checksum: 328
Satellite: RS-30
Catalog number: 32953
Epoch time: 14212.90075882
Element set: 157
Inclination: 082.5079 deg
RA of node: 173.4103 deg
Eccentricity: 0.0020619
Arg of perigee: 059.2719 deg
Mean anomaly: 301.0389 deg
Mean motion: 12.43049496 rev/day
Decay rate: 1.0e-07 rev/day^2
Epoch rev: 28081
Checksum: 285
Satellite: METEOR-M
Catalog number: 35865
Epoch time: 14212.69742009
Element set: 762
Inclination: 098.5462 deg
RA of node: 258.7536 deg
Eccentricity: 0.0002387
Arg of perigee: 349.4452 deg
Mean anomaly: 010.6658 deg
Mean motion: 14.21926108 rev/day
Decay rate: -2.3e-07 rev/day^2
Epoch rev: 25266
Checksum: 308
Satellite: RS-38
Catalog number: 35869
Epoch time: 14212.75117767
Element set: 677
Inclination: 098.5398 deg
RA of node: 258.5857 deg
Eccentricity: 0.0003760
Arg of perigee: 337.2515 deg
Mean anomaly: 161.0573 deg
Mean motion: 14.22219173 rev/day
Decay rate: 1.9e-07 rev/day^2
Epoch rev: 25270
Checksum: 329
Satellite: JUGNU
Catalog number: 37839
Epoch time: 14211.78188123
Element set: 664
Inclination: 019.9622 deg
RA of node: 350.7225 deg
Eccentricity: 0.0019061
Arg of perigee: 103.9751 deg
Mean anomaly: 044.1522 deg
Mean motion: 14.12322072 rev/day
Decay rate: 3.63e-06 rev/day^2
Epoch rev: 14472
Checksum: 270
Satellite: SRMSAT
Catalog number: 37841
Epoch time: 14211.83894775
Element set: 668
Inclination: 019.9731 deg
RA of node: 010.5743 deg
Eccentricity: 0.0012081
Arg of perigee: 042.8202 deg
Mean anomaly: 104.8277 deg
Mean motion: 14.10361604 rev/day
Decay rate: 3.39e-06 rev/day^2
Epoch rev: 14453
Checksum: 279
Satellite: RAX-2
Catalog number: 37853
Epoch time: 14212.13690154
Element set: 874
Inclination: 101.7102 deg
RA of node: 262.7564 deg
Eccentricity: 0.0215071
Arg of perigee: 289.5762 deg
Mean anomaly: 132.4493 deg
Mean motion: 14.89827257 rev/day
Decay rate: 2.583e-05 rev/day^2
Epoch rev: 14920
Checksum: 307
Satellite: AUBIESAT
Catalog number: 37854
Epoch time: 14211.76006411
Element set: 853
Inclination: 101.7151 deg
RA of node: 264.2149 deg
Eccentricity: 0.0212831
Arg of perigee: 287.5871 deg
Mean anomaly: 195.9520 deg
Mean motion: 14.91177719 rev/day
Decay rate: 2.803e-05 rev/day^2
Epoch rev: 14920
Checksum: 291
Satellite: HRBE
Catalog number: 37855
Epoch time: 14212.77061457
Element set: 864
Inclination: 101.7149 deg
RA of node: 265.0037 deg
Eccentricity: 0.0214921
Arg of perigee: 286.0779 deg
Mean anomaly: 166.8271 deg
Mean motion: 14.90477230 rev/day
Decay rate: 3.214e-05 rev/day^2
Epoch rev: 14932
Checksum: 302
